Tracking 19146 objects as of 24-Apr-2018
HD Live streaming from Space Station
objects crossing your sky now

FENGYUN 1C DEB

Track FENGYUN 1C DEB now!
10-day predictions


NORAD ID: 29873
Int'l Code: 1999-025FT
Perigee: 848.5 km
Apogee: 984.7 km
Inclination: 99.3 °
Period: 103.2 minutes
Semi major axis: 7287 km
RCS: 0.0634 m2 (small)
Launch date: May 10, 1999
Source: People's Republic of China (PRC)
Launch site: Taiyaun Space Center, China (TSC)

Note: This is SATELLITE DEBRIS
aabbcc
Your satellite tracking list
Your tracking list is empty




NASA's NSSDC Master Catalog

Two Line Element Set (TLE):
1 29873U 99025FT  18113.86943892 -.00000231  00000-0 -13180-3 0  9991
2 29873  99.3070 228.2331 0093409 198.2495 280.7881 13.95488326573933
Source of the keplerian elements: AFSPC